Location: Unspecified
(0.0000°N, 0.0000°E)
Time: 04:46:30
(UTC+00:00)

Courier 1B Rocket - Visible Passes

Search period start: 05 May 2016 00:00
Search period end: 15 May 2016 00:00
Orbit: 920 x 1202 km, 28.3° (Epoch: 04 May)

Date Brightness Start Highest point End Pass type
(mag) Time Alt. Az. Time Alt. Az. Time Alt. Az.
05 May 6.8 20:01:02 10° NNW 20:06:34 22° NNE 20:06:49 22° NNE visible
06 May 7.2 19:00:40 10° NNW 19:05:00 16° NNE 19:09:13 10° NE visible
06 May 6.8 20:52:20 10° NW 20:55:58 28° NNW 20:55:58 28° NNW visible
07 May 6.2 19:51:27 10° NW 19:58:08 32° NNE 19:58:47 32° NE visible
07 May 7.8 21:44:35 10° WNW 21:45:10 13° WNW 21:45:10 13° WNW visible
08 May 6.8 18:50:48 10° NNW 18:56:41 23° NNE 19:01:38 12° ENE visible
08 May 6.3 20:43:15 10° NW 20:48:00 40° NW 20:48:00 40° NW visible
09 May 5.7 19:42:10 10° NW 19:49:34 48° NNE 19:50:52 44° ENE visible
09 May 7.6 21:36:04 10° WNW 21:37:14 15° WNW 21:37:14 15° WNW visible
10 May 6.4 18:41:17 10° NW 18:48:12 34° NNE 18:53:45 14° E visible
10 May 5.9 20:34:27 10° WNW 20:40:08 52° WNW 20:40:08 52° WNW visible
11 May 5.3 19:33:07 10° NW 19:40:54 73° NNE 19:43:02 50° E visible
11 May 7.6 21:27:55 10° W 21:29:25 16° W 21:29:25 16° W visible
12 May 7.0 05:12:29 10° S 05:15:52 15° SSE 05:19:15 10° ESE visible
12 May 5.9 18:32:03 10° NW 18:39:35 50° NNE 18:45:58 14° E visible
12 May 5.9 20:25:57 10° WNW 20:32:21 49° WSW 20:32:21 49° WSW visible
13 May 5.4 19:24:20 10° WNW 19:32:11 77° SSW 19:35:17 40° SE visible
13 May 7.6 21:20:13 10° W 21:21:39 15° WSW 21:21:39 15° WSW visible
14 May 6.6 05:02:41 10° SSW 05:07:32 23° SSE 05:12:22 10° ESE visible
14 May 5.5 18:23:02 10° NW 18:30:53 75° NNE 18:38:13 12° ESE visible
14 May 6.3 20:17:49 10° W 20:24:36 36° SSW 20:24:36 36° SSW visible
